FW4606 Weather Reports


time (UTC)temp
F
wind
direction
speed
knots
gust
knots
rain 1hr
in
rain 24hr
in
rain mn
in
humidity
%
barometer
mb
20260905073915 65 6 0.0 3.5 0.00 0.00 0.00 95 1016.4
20260905073909 65 5 0.9 3.5 0.00 0.00 0.00 94 1016.4
20260905072900 65 343 0.0 2.6 0.00 0.00 0.00 94 1016.3
20260905072626 65 89 0.0 1.7 0.00 0.00 0.00 94 1016.2
20260905071848 65 356 0.0 0.9 0.00 0.00 0.00 94 1016.1
20260905071342 65 354 0.0 1.7 0.00 0.00 0.00 94 1016.1
20260905071106 65 354 0.0 1.7 0.00 0.00 0.00 94 1016.0
20260905070330 65 145 0.0 1.7 0.00 0.00 0.00 94 1016.1
20260905070056 66 23 0.0 1.7 0.00 0.00 0.00 94 1016.1
20260905065318 66 9 0.0 1.7 0.00 0.00 0.00 94 1016.0
20260905064812 66 46 0.0 0.9 0.00 0.00 0.00 94 1016.1
20260905064306 66 49 0.0 0.0 0.00 0.00 0.00 94 1016.2
20260905063800 66 4 0.0 1.7 0.00 0.00 0.00 94 1016.1
20260905063254 66 4 0.0 1.7 0.00 0.00 0.00 94 1016.1
20260905062748 66 340 0.0 0.9 0.00 0.00 0.00 94 1016.1
20260905062242 66 340 0.0 0.9 0.00 0.00 0.00 94 1016.1
20260905061736 66 314 0.0 0.9 0.00 0.00 0.00 94 1016.2
20260905061230 66 314 0.0 1.7 0.00 0.00 0.00 94 1016.2
20260905060724 66 314 0.0 1.7 0.00 0.00 0.00 94 1016.2
20260905060218 66 351 0.0 1.7 0.00 0.00 0.00 94 1016.1
20260905055712 66 5 0.0 1.7 0.00 0.00 0.00 94 1016.3
20260905055436 66 19 0.0 1.7 0.00 0.00 0.00 94 1016.2
20260905054700 66 37 0.0 1.7 0.00 0.00 0.00 94 1016.2
20260905054154 66 92 0.0 0.9 0.00 0.00 0.00 94 1016.1
20260905053649 66 354 0.0 0.9 0.00 0.00 0.00 94 1015.9
20260905053412 66 352 0.0 0.9 0.00 0.00 0.00 94 1015.9
20260905052636 66 351 0.0 0.9 0.00 0.00 0.00 94 1015.9
20260905052128 66 349 0.0 0.9 0.00 0.00 0.00 94 1015.7
20260905051624 66 351 0.0 1.7 0.00 0.00 0.00 94 1015.8
20260905051118 66 351 0.0 1.7 0.00 0.00 0.00 94 1015.8
20260905050612 66 312 0.0 1.7 0.00 0.00 0.00 94 1015.9
20260905050105 66 82 0.0 0.9 0.00 0.00 0.00 94 1015.9
20260905045559 66 4 0.0 2.6 0.00 0.00 0.00 93 1015.8
20260905045053 66 347 0.0 4.3 0.00 0.00 0.00 93 1015.9
20260905044546 66 263 0.0 4.3 0.00 0.00 0.00 93 1015.8
20260905044041 65 0 0.0 1.7 0.00 0.00 0.00 93 1015.8
20260905043535 65 15 0.0 1.7 0.00 0.00 0.00 93 1015.8
20260905043031 65 13 0.0 1.7 0.00 0.00 0.00 93 1015.7
20260905042522 65 1 0.0 1.7 0.00 0.00 0.00 93 1015.7
20260905042247 65 288 0.0 1.7 0.00 0.00 0.00 92 1015.7
20260905041741 66 358 0.0 1.7 0.00 0.00 0.00 92 1015.7
20260905041235 66 350 0.0 0.0 0.00 0.00 0.00 92 1015.8
20260905040459 66 348 0.0 0.0 0.00 0.00 0.00 92 1016.0
20260905035953 66 350 0.0 0.9 0.00 0.00 0.00 92 1015.9
20260905035447 66 350 0.0 0.9 0.00 0.00 0.00 91 1015.8
20260905034941 67 341 0.0 0.9 0.00 0.00 0.00 91 1015.8
20260905034434 67 343 0.0 0.9 0.00 0.00 0.00 91 1015.8
20260905033929 67 1 0.0 0.9 0.00 0.00 0.00 91 1015.7
20260905033422 67 1 0.0 0.9 0.00 0.00 0.00 90 1015.5
20260905032917 67 3 0.0 0.0 0.00 0.00 0.00 90 1015.6
20260905032411 67 4 0.0 0.9 0.00 0.00 0.00 90 1015.7
20260905031905 68 5 0.0 0.9 0.00 0.00 0.00 90 1015.6
20260905031359 68 0 0.0 1.7 0.00 0.00 0.00 89 1015.7
20260905030853 68 352 0.0 1.7 0.00 0.00 0.00 89 1015.6
20260905030347 68 341 0.0 1.7 0.00 0.00 0.00 89 1015.6
20260905030113 69 24 0.0 0.9 0.00 0.00 0.00 89 1015.6
20260905025334 69 16 0.0 3.5 0.00 0.00 0.00 88 1015.5
20260905025059 69 0 0.0 3.5 0.00 0.00 0.00 88 1015.5
20260905024555 69 294 0.0 1.7 0.00 0.00 0.00 88 1015.5
20260905024050 70 11 0.0 1.7 0.00 0.00 0.00 87 1015.5
20260905023310 70 308 0.0 0.9 0.00 0.00 0.00 87 1015.4
20260905023038 70 26 0.0 0.9 0.00 0.00 0.00 87 1015.3
20260905022801 70 359 0.0 2.6 0.00 0.00 0.00 86 1015.2
20260905022033 71 13 0.0 2.6 0.00 0.00 0.00 86 1015.2
20260905021247 71 359 0.0 1.7 0.00 0.00 0.00 85 1015.1
20260905020741 71 354 0.0 1.7 0.00 0.00 0.00 85 1015.1
20260905020235 71 9 0.0 1.7 0.00 0.00 0.00 84 1015.1
20260905015729 72 25 0.0 1.7 0.00 0.00 0.00 84 1015.1
20260905015223 72 9 0.0 1.7 0.00 0.00 0.00 83 1015.0
20260905014717 72 354 0.0 1.7 0.00 0.00 0.00 83 1014.9
20260905014211 73 25 0.0 1.7 0.00 0.00 0.00 83 1014.9
20260905013704 73 345 0.0 1.7 0.00 0.00 0.00 82 1014.8
20260905013159 73 340 0.0 1.7 0.00 0.00 0.00 82 1014.7
20260905012653 74 5 0.0 2.6 0.00 0.00 0.00 82 1014.8
20260905012147 74 1 0.0 2.6 0.00 0.00 0.00 81 1014.6
20260905011643 74 356 0.0 0.9 0.00 0.00 0.00 81 1014.6
20260905011638 75 356 0.0 2.6 0.00 0.00 0.00 80 1014.4
20260905010629 75 356 0.0 2.6 0.00 0.00 0.00 79 1014.4
20260905010123 76 5 0.0 2.6 0.00 0.00 0.00 78 1014.4
20260905005616 76 11 0.0 2.6 0.00 0.00 0.00 78 1014.3
20260905005111 76 349 0.0 1.7 0.00 0.00 0.00 77 1014.2
20260905004606 77 22 0.0 1.7 0.00 0.00 0.00 76 1014.2
20260905004330 77 4 0.0 3.5 0.00 0.00 0.00 76 1014.2
20260905003552 78 9 0.0 3.5 0.00 0.00 0.00 75 1014.3
20260905003047 78 7 0.0 2.6 0.00 0.00 0.00 75 1014.2
20260905002541 79 1 0.0 2.6 0.00 0.00 0.00 74 1014.2
20260905002035 79 211 0.0 1.7 0.00 0.00 0.00 74 1014.1
20260905001529 80 18 0.0 0.9 0.00 0.00 0.00 73 1013.9
20260905001024 80 4 0.0 1.7 0.00 0.00 0.00 72 1013.8
20260905001019 81 347 0.0 1.7 0.00 0.00 0.00 72 1013.7
20260905000014 81 350 0.0 0.0 0.00 0.00 0.00 72 1013.7
20260904235504 81 350 0.0 0.0 0.00 0.00 0.00 71 1013.6
20260904234959 82 350 0.0 0.0 0.00 0.00 0.00 71 1013.6
20260904234452 82 356 0.0 1.7 0.00 0.00 0.00 70 1013.6
20260904234219 83 12 0.0 1.7 0.00 0.00 0.00 70 1013.7
20260904233441 83 353 0.0 1.7 0.00 0.00 0.00 68 1013.6
20260904232935 83 11 0.0 1.7 0.00 0.00 0.00 68 1013.6
20260904232429 84 352 0.0 1.7 0.00 0.00 0.00 68 1013.6
20260904231923 84 5 0.0 2.6 0.00 0.00 0.00 66 1013.6
20260904231417 85 19 0.0 2.6 0.00 0.00 0.00 66 1013.5
20260904230917 85 334 0.9 2.6 0.00 0.00 0.00 66 1013.4
20260904230417 85 32 0.9 2.6 0.00 0.00 0.00 66 1013.4
20260904225917 85 356 0.0 1.7 0.00 0.00 0.00 65 1013.5
20260904225649 85 343 0.9 2.6 0.00 0.00 0.00 64 1013.5
20260904224917 85 12 0.9 3.5 0.00 0.00 0.00 65 1013.4
20260904224414 86 358 0.9 3.5 0.00 0.00 0.00 64 1013.4
20260904223915 86 352 0.9 3.5 0.00 0.00 0.00 64 1013.2
20260904223415 86 356 0.9 2.6 0.00 0.00 0.00 63 1013.2
20260904222913 87 353 0.0 2.6 0.00 0.00 0.00 62 1013.1
20260904222411 87 198 0.0 2.6 0.00 0.00 0.00 63 1013.0
20260904221909 87 51 0.0 2.6 0.00 0.00 0.00 62 1013.0
20260904221407 87 19 0.0 2.6 0.00 0.00 0.00 64 1013.0
20260904220908 87 26 0.0 3.5 0.00 0.00 0.00 64 1012.9
20260904220407 87 333 0.9 3.5 0.00 0.00 0.00 64 1012.8
20260904215905 87 1 0.9 2.6 0.00 0.00 0.00 63 1012.7
20260904215407 87 339 0.0 2.6 0.00 0.00 0.00 64 1012.8
20260904214906 87 354 0.0 2.6 0.00 0.00 0.00 63 1012.7
20260904214407 88 105 0.0 1.7 0.00 0.00 0.00 65 1012.7
20260904213901 87 319 0.0 1.7 0.00 0.00 0.00 64 1012.7
20260904213355 87 358 0.0 0.9 0.00 0.00 0.00 65 1012.8
20260904212854 87 350 0.0 0.9 0.00 0.00 0.00 63 1012.8
20260904212355 87 0 0.0 1.7 0.00 0.00 0.00 66 1012.7
20260904212122 87 4 0.0 2.6 0.00 0.00 0.00 65 1012.7
20260904211352 87 1 0.0 2.6 0.00 0.00 0.00 68 1012.7
20260904210850 87 339 0.0 1.7 0.00 0.00 0.00 66 1012.8
20260904210347 86 84 0.0 2.6 0.00 0.00 0.00 66 1012.9
20260904205845 86 350 0.0 2.6 0.00 0.00 0.00 65 1012.9
20260904205348 86 98 0.0 2.6 0.00 0.00 0.00 67 1012.9
20260904204846 85 356 0.0 2.6 0.00 0.00 0.00 67 1012.9
20260904204345 86 331 0.0 3.5 0.00 0.00 0.00 66 1012.9
20260904203846 85 98 0.9 3.5 0.00 0.00 0.00 69 1012.9
20260904203346 85 335 0.9 2.6 0.00 0.00 0.00 66 1012.9
20260904202843 85 15 0.9 2.6 0.00 0.00 0.00 66 1012.9
20260904202345 85 328 0.0 2.6 0.00 0.00 0.00 68 1013.0
20260904201841 85 1 0.0 2.6 0.00 0.00 0.00 68 1013.0
20260904201341 85 356 0.0 2.6 0.00 0.00 0.00 67 1013.0
20260904200843 84 350 0.0 1.7 0.00 0.00 0.00 69 1012.9
20260904200615 84 354 0.0 2.6 0.00 0.00 0.00 69 1012.9
20260904195842 84 0 0.9 2.6 0.00 0.00 0.00 69 1013.0
20260904195342 84 32 0.0 2.6 0.00 0.00 0.00 71 1012.9
20260904194841 83 345 0.0 1.7 0.00 0.00 0.00 71 1013.0
20260904194339 83 12 0.9 4.3 0.00 0.00 0.00 73 1013.0
20260904193837 82 101 0.9 4.3 0.00 0.00 0.00 75 1013.0
20260904193339 82 356 0.9 3.5 0.00 0.00 0.00 74 1013.0
20260904192837 82 356 0.9 3.5 0.00 0.00 0.00 75 1013.0
20260904192333 82 350 0.9 3.5 0.00 0.00 0.00 75 1013.1
20260904191834 82 358 0.0 2.6 0.00 0.00 0.00 78 1013.1
20260904191605 82 354 0.0 3.5 0.00 0.00 0.00 78 1013.1
20260904190832 81 27 0.0 3.5 0.00 0.00 0.00 79 1013.1
20260904190332 81 19 0.0 2.6 0.00 0.00 0.00 80 1013.2
20260904185834 80 8 0.0 3.5 0.00 0.00 0.00 80 1013.1
20260904185329 80 7 0.0 3.5 0.00 0.00 0.00 80 1013.2
20260904184830 80 12 0.0 2.6 0.00 0.00 0.00 82 1013.2
20260904184331 79 351 0.0 2.6 0.00 0.00 0.00 82 1013.2
20260904183831 79 351 0.0 2.6 0.00 0.00 0.00 81 1013.4
20260904183324 79 356 0.0 1.7 0.00 0.00 0.00 81 1013.4
20260904182824 78 5 0.0 2.6 0.00 0.00 0.00 83 1013.4
20260904182322 78 12 0.0 2.6 0.00 0.00 0.00 84 1013.4
20260904181821 78 94 0.0 2.6 0.00 0.00 0.00 85 1013.5
20260904181321 77 113 0.0 2.6 0.00 0.00 0.00 85 1013.4
20260904180820 76 16 0.0 1.7 0.00 0.00 0.00 85 1013.4
20260904180321 76 352 0.0 1.7 0.00 0.00 0.00 85 1013.4
20260904175821 76 324 0.0 2.6 0.00 0.00 0.00 86 1013.4
20260904175321 75 6 0.0 2.6 0.00 0.00 0.00 87 1013.4
20260904175053 75 337 0.0 2.6 0.00 0.00 0.00 87 1013.4
20260904174316 75 295 0.9 3.5 0.00 0.00 0.00 87 1013.4
20260904173817 74 9 0.9 3.5 0.00 0.00 0.00 87 1013.5
20260904173315 75 323 0.0 2.6 0.00 0.00 0.00 87 1013.4
20260904172815 75 0 0.0 1.7 0.00 0.00 0.00 87 1013.4
20260904172315 75 12 0.0 1.7 0.00 0.00 0.00 88 1013.5
20260904171815 75 4 0.0 1.7 0.00 0.00 0.00 89 1013.4
20260904171317 74 356 0.0 2.6 0.00 0.00 0.00 89 1013.4
20260904170816 74 43 0.0 2.6 0.00 0.00 0.00 90 1013.2
20260904170317 74 346 0.0 1.7 0.00 0.00 0.00 91 1013.2
20260904165812 74 350 0.0 2.6 0.00 0.00 0.00 91 1013.2
20260904165546 74 6 0.0 2.6 0.00 0.00 0.00 91 1013.1
20260904165048 74 356 0.0 1.7 0.00 0.00 0.00 92 1013.1
20260904164313 74 0 0.0 1.7 0.00 0.00 0.00 92 1013.1
20260904163812 74 7 0.0 1.7 0.00 0.00 0.00 92 1013.0
20260904163312 74 19 0.0 0.0 0.00 0.00 0.00 92 1012.9
20260904162812 74 354 0.0 0.0 0.00 0.00 0.00 92 1012.9
20260904162311 74 356 0.0 0.0 0.00 0.00 0.00 92 1012.8
20260904161813 74 352 0.0 0.0 0.00 0.00 0.00 92 1012.7
20260904161307 74 15 0.0 1.7 0.00 0.00 0.00 92 1012.7
20260904160807 74 12 0.0 1.7 0.00 0.00 0.00 92 1012.6
20260904160307 74 22 0.0 1.7 0.00 0.00 0.00 92 1012.5
20260904155807 74 79 0.0 0.9 0.00 0.00 0.00 93 1012.6
20260904155539 73 56 0.0 1.7 0.00 0.00 0.00 93 1012.6
20260904154808 73 24 0.0 1.7 0.00 0.00 0.00 93 1012.5
20260904154538 73 3 0.0 1.7 0.00 0.00 0.00 93 1012.5
20260904153808 73 4 0.0 1.7 0.00 0.00 0.00 93 1012.4
20260904153308 73 1 0.0 0.9 0.00 0.00 0.00 93 1012.4
20260904152805 73 1 0.0 0.9 0.00 0.00 0.00 93 1012.3
20260904152306 73 1 0.0 1.7 0.00 0.00 0.00 94 1012.2
20260904151803 73 1 0.0 1.7 0.00 0.00 0.00 93 1012.2
20260904151304 73 300 0.0 1.7 0.00 0.00 0.00 94 1012.1
20260904150804 73 301 0.0 1.7 0.00 0.00 0.00 93 1012.1
20260904150304 73 70 0.0 0.9 0.00 0.00 0.00 93 1012.0
20260904150034 73 67 0.0 0.9 0.00 0.00 0.00 93 1012.0
20260904145305 73 1 0.0 0.9 0.00 0.00 0.00 93 1011.9
20260904145036 72 343 0.0 0.9 0.00 0.00 0.00 93 1011.9
20260904144301 72 330 0.0 0.9 0.00 0.00 0.00 93 1011.8
20260904143801 72 330 0.0 0.9 0.00 0.00 0.00 93 1011.8
20260904143300 72 291 0.0 0.9 0.00 0.00 0.00 94 1011.7
20260904142800 72 292 0.0 0.9 0.00 0.00 0.00 93 1011.7
20260904142301 71 293 0.0 0.0 0.00 0.00 0.00 94 1011.5
20260904141759 71 293 0.0 0.9 0.00 0.00 0.00 94 1011.5
20260904141301 71 291 0.0 0.9 0.00 0.00 0.00 94 1011.3
20260904140801 71 335 0.0 0.9 0.00 0.00 0.00 94 1011.2
20260904140301 71 134 0.0 0.9 0.00 0.00 0.00 95 1011.2
20260904135757 70 134 0.0 2.6 0.00 0.00 0.00 95 1011.3
20260904135256 70 132 0.0 2.6 0.00 0.00 0.00 95 1011.2
20260904135026 70 96 0.0 1.7 0.00 0.00 0.00 95 1011.2
20260904134526 70 119 0.0 0.9 0.00 0.00 0.00 96 1011.3
20260904134418 69 95 0.0 0.9 0.00 0.00 0.00 95 1011.3
20260904133253 69 93 0.0 0.9 0.00 0.00 0.00 95 1011.3
20260904132748 69 356 0.0 0.9 0.00 0.00 0.00 95 1011.3
20260904132246 69 357 0.0 0.9 0.00 0.00 0.00 95 1011.3
20260904132019 69 356 0.0 0.9 0.00 0.00 0.00 96 1011.4
20260904131244 69 356 0.0 0.9 0.00 0.00 0.00 95 1011.3
20260904130744 69 39 0.0 0.0 0.00 0.00 0.00 95 1011.3
20260904130243 69 37 0.0 0.0 0.00 0.00 0.00 95 1011.4
20260904125749 69 37 0.0 0.0 0.00 0.00 0.00 95 1011.2
20260904125741 69 37 0.0 0.0 0.00 0.00 0.00 95 1011.3
20260904124737 69 37 0.0 0.9 0.00 0.00 0.00 95 1011.2
20260904124236 69 37 0.0 0.9 0.00 0.00 0.00 95 1011.1
20260904123736 69 44 0.0 0.0 0.00 0.00 0.00 95 1011.1
20260904123459 69 43 0.0 0.0 0.00 0.00 0.00 95 1011.1
20260904122729 69 43 0.0 0.0 0.00 0.00 0.00 95 1011.1
20260904122229 69 43 0.0 0.0 0.00 0.00 0.00 95 1011.0
20260904121727 69 43 0.0 0.0 0.00 0.00 0.00 94 1010.9
20260904121225 69 70 0.0 0.9 0.00 0.00 0.00 94 1010.8
20260904120724 69 70 0.0 0.9 0.00 0.00 0.00 94 1010.7
20260904120221 69 342 0.0 0.9 0.00 0.00 0.00 94 1010.7
20260904115723 69 341 0.0 0.9 0.00 0.00 0.00 94 1010.7
20260904115221 69 340 0.0 0.9 0.00 0.00 0.00 94 1010.7
20260904114953 69 318 0.0 0.0 0.00 0.00 0.00 94 1010.6
20260904114225 69 314 0.0 0.0 0.00 0.00 0.00 94 1010.6
20260904114220 69 318 0.0 0.0 0.00 0.00 0.00 94 1010.6
20260904113218 69 313 0.0 0.0 0.00 0.00 0.00 94 1010.5
20260904112724 69 312 0.0 0.9 0.00 0.00 0.00 94 1010.3
20260904112717 69 313 0.0 0.9 0.00 0.00 0.00 94 1010.4
20260904111715 69 285 0.0 0.9 0.00 0.00 0.00 94 1010.3
20260904111218 69 270 0.0 0.0 0.00 0.00 0.00 94 1010.2
20260904110720 70 18 0.0 0.9 0.00 0.00 0.00 93 1010.3
20260904110716 69 271 0.0 0.9 0.00 0.00 0.00 93 1010.2
20260904105712 70 116 0.0 1.7 0.00 0.00 0.00 93 1010.3
20260904105211 70 122 0.0 1.7 0.00 0.00 0.00 93 1010.3
20260904104712 70 139 0.0 0.9 0.00 0.00 0.00 93 1010.4
20260904104211 70 140 0.0 1.7 0.00 0.00 0.00 94 1010.3
20260904103708 70 6 0.0 1.7 0.00 0.00 0.00 94 1010.4
20260904103436 71 12 0.0 1.7 0.00 0.00 0.00 94 1010.3
20260904102706 71 12 0.0 1.7 0.00 0.00 0.00 94 1010.4
20260904102205 71 349 0.0 1.7 0.00 0.00 0.00 94 1010.3
20260904101707 71 350 0.0 2.6 0.00 0.00 0.00 95 1010.3
20260904101210 71 83 0.0 2.6 0.00 0.00 0.00 95 1010.2
20260904100706 72 350 0.0 1.7 0.00 0.00 0.00 95 1010.3
20260904100438 72 6 0.0 0.9 0.00 0.00 0.00 95 1010.1
20260904095710 72 57 0.0 1.7 0.00 0.00 0.00 95 1010.1
20260904095706 72 6 0.0 1.7 0.00 0.00 0.00 95 1010.2
20260904094707 72 329 0.0 0.9 0.00 0.00 0.00 95 1010.2
20260904094206 72 103 0.0 1.7 0.00 0.00 0.00 95 1010.0
20260904093701 72 281 0.0 1.7 0.00 0.00 0.00 95 1010.2
20260904093433 72 165 0.0 1.7 0.00 0.00 0.00 95 1010.2
20260904092705 72 165 0.0 1.7 0.00 0.00 0.00 95 1010.1
20260904092203 72 340 0.0 1.7 0.00 0.00 0.00 95 1010.3
20260904091700 72 115 0.0 1.7 0.00 0.00 0.00 95 1010.0
20260904091200 72 41 0.0 0.9 0.00 0.00 0.00 95 1010.2
20260904090657 72 39 0.0 0.9 0.00 0.00 0.00 95 1010.2
20260904090157 73 40 0.0 0.9 0.00 0.00 0.00 95 1010.2
20260904085659 73 91 0.0 0.9 0.00 0.00 0.00 95 1010.2
20260904085156 73 342 0.0 0.9 0.00 0.00 0.00 95 1010.2
20260904084656 73 324 0.9 2.6 0.00 0.00 0.00 95 1009.8
20260904084155 72 113 0.9 2.6 0.00 0.00 0.00 95 1010.1
20260904083654 72 359 0.0 1.7 0.00 0.00 0.00 95 1009.7
20260904083152 72 142 0.0 0.0 0.00 0.00 0.00 95 1009.5
20260904082655 72 143 0.0 0.0 0.00 0.00 0.00 95 1009.3
20260904082151 72 143 0.0 0.0 0.00 0.00 0.00 95 1009.2
20260904081653 72 142 0.0 0.0 0.00 0.00 0.00 94 1009.3
20260904081151 72 142 0.0 0.0 0.00 0.00 0.00 94 1009.3
20260904080646 73 142 0.0 0.0 0.00 0.00 0.00 94 1009.3
20260904080139 73 142 0.0 0.0 0.00 0.00 0.00 94 1009.3
20260904075906 73 143 0.0 0.0 0.00 0.00 0.00 94 1009.3
20260904075358 73 143 0.0 0.0 0.00 0.00 0.00 94 1009.3
20260904074622 73 142 0.0 0.0 0.00 0.00 0.00 94 1009.2
20260904074116 73 143 0.0 0.0 0.00 0.00 0.00 94 1009.2